FW4043 Weather Reports


Display with metric or nautical units.
time (UTC)temp
F
wind
direction
speed
MPH
gust
MPH
rain 1hr
in
rain 24hr
in
rain mn
in
humidity
%
barometer
mb
20260904000014 81 121 4.0 8.0 0.00 0.21 0.21 89 1013.6
20260903234515 81 134 5.0 10.0 0.00 0.21 0.21 89 1013.7
20260903233020 81 125 5.0 7.0 0.00 0.21 0.21 89 1013.7
20260903231528 81 103 4.0 7.0 0.00 0.21 0.21 89 1013.7
20260903230028 81 152 4.0 9.0 0.00 0.21 0.21 89 1013.9
20260903224538 81 126 7.0 10.0 0.00 0.21 0.21 89 1013.8
20260903223010 81 98 2.0 5.0 0.00 0.21 0.21 88 1014.0
20260903221514 81 92 2.0 6.0 0.00 0.21 0.21 88 1014.3
20260903220020 81 59 0.0 6.0 0.00 0.21 0.21 88 1014.4
20260903214524 81 56 2.0 6.0 0.00 0.21 0.21 87 1014.4
20260903213040 81 59 2.0 6.0 0.00 0.21 0.21 87 1014.9
20260903211530 81 59 0.0 5.0 0.00 0.21 0.21 87 1015.1
20260903210057 81 110 1.0 6.0 0.00 0.21 0.21 88 1015.3
20260903204545 81 86 3.0 8.0 0.00 0.21 0.21 87 1014.9
20260903203035 81 336 8.0 11.0 0.00 0.21 0.21 88 1014.8
20260903201515 81 304 7.0 13.0 0.01 0.21 0.21 88 1014.9
20260903200020 82 347 8.0 16.0 0.01 0.21 0.21 88 1014.8
20260903194532 81 309 3.0 6.0 0.01 0.21 0.21 85 1014.9
20260903193024 82 88 0.0 5.0 0.08 0.21 0.21 85 1015.0
20260903191529 82 269 1.0 6.0 0.08 0.20 0.20 85 1015.0
20260903190029 82 355 4.0 12.0 0.09 0.20 0.20 86 1014.8
20260903184514 82 309 5.0 9.0 0.11 0.20 0.20 86 1014.8
20260903183019 81 243 0.0 8.0 0.13 0.13 0.13 84 1015.0
20260903181532 81 75 1.0 10.0 0.12 0.12 0.12 84 1015.7
20260903180019 82 46 2.0 12.0 0.11 0.11 0.11 82 1015.4
20260903174525 84 120 10.0 19.0 0.08 0.08 0.09 82 1015.5
20260903173027 90 243 3.0 10.0 0.00 0.00 0.00 78 1015.0
20260903171532 91 139 2.0 9.0 0.00 0.00 0.00 79 1015.2
20260903170039 91 173 8.0 13.0 0.00 0.00 0.00 78 1015.4
20260903164545 90 117 5.0 12.0 0.00 0.00 0.00 81 1015.5
20260903163032 89 161 5.0 10.0 0.00 0.00 0.00 82 1015.5
20260903161544 88 309 2.0 8.0 0.00 0.00 0.00 83 1015.7
20260903160047 88 236 3.0 10.0 0.00 0.00 0.00 83 1015.5
20260903154546 88 212 6.0 12.0 0.00 0.00 0.00 84 1015.6
20260903153046 87 237 4.0 14.0 0.00 0.00 0.00 85 1015.6
20260903151556 87 213 4.0 18.0 0.00 0.00 0.00 87 1015.7
20260903150104 86 155 3.0 11.0 0.00 0.00 0.00 88 1015.7
20260903144555 84 147 2.0 10.0 0.00 0.00 0.00 89 1015.9
20260903143106 84 127 8.0 11.0 0.00 0.00 0.00 89 1015.9
20260903143002 83 131 8.0 11.0 0.00 0.00 0.00 89 1016.0
20260903141508 83 134 9.0 13.0 0.00 0.00 0.00 89 1015.9
20260903140007 82 119 9.0 12.0 0.00 0.00 0.00 90 1016.1
20260903134508 82 221 1.0 10.0 0.00 0.00 0.00 90 1015.8
20260903133019 81 123 8.0 10.0 0.00 0.00 0.00 90 1015.8
20260903131527 81 184 1.0 7.0 0.00 0.00 0.00 90 1015.9
20260903130017 81 188 0.0 7.0 0.00 0.00 0.00 90 1015.7
20260903124527 81 131 7.0 10.0 0.00 0.00 0.00 90 1015.4
20260903123040 81 125 1.0 2.0 0.00 0.00 0.00 89 1015.5
20260903121556 81 130 0.0 2.0 0.00 0.00 0.00 89 1015.4
20260903120055 81 128 0.0 2.0 0.00 0.00 0.00 89 1015.4
20260903114503 82 180 0.0 5.0 0.00 0.00 0.00 89 1015.3
20260903113055 82 194 1.0 9.0 0.00 0.00 0.00 89 1015.3
20260903111505 82 227 3.0 10.0 0.00 0.00 0.00 89 1015.3
20260903110005 82 226 3.0 10.0 0.00 0.00 0.00 89 1015.2
20260903104511 82 229 3.0 9.0 0.00 0.00 0.00 89 1015.1
20260903103017 81 15 0.0 4.0 0.00 0.00 0.00 89 1015.1
20260903101526 82 161 0.0 10.0 0.00 0.00 0.00 89 1015.0
20260903100028 81 257 0.0 3.0 0.00 0.00 0.00 90 1014.9
20260903094515 81 244 0.0 7.0 0.00 0.00 0.00 90 1014.8
20260903093027 80 161 0.0 9.0 0.00 0.00 0.00 90 1014.8
20260903091530 80 136 5.0 11.0 0.00 0.00 0.00 90 1014.9
20260903090037 81 136 5.0 11.0 0.00 0.00 0.00 90 1014.8
20260903084538 81 121 8.0 10.0 0.00 0.00 0.00 90 1014.8
20260903083022 81 126 8.0 12.0 0.00 0.00 0.00 90 1014.8
20260903081535 81 131 6.0 8.0 0.00 0.00 0.00 90 1014.8
20260903080041 81 132 7.0 10.0 0.00 0.00 0.00 89 1014.8
20260903074544 81 119 8.0 11.0 0.00 0.00 0.00 89 1014.7
20260903073100 81 115 8.0 10.0 0.00 0.00 0.00 89 1014.8
20260903073009 81 125 8.0 10.0 0.00 0.00 0.00 89 1014.8
20260903071600 82 128 6.0 8.0 0.00 0.00 0.00 88 1015.0
20260903071502 82 126 6.0 8.0 0.00 0.00 0.00 88 1014.9
20260903070048 82 130 6.0 8.0 0.00 0.00 0.00 88 1015.2
20260903064535 82 134 6.0 9.0 0.00 0.00 0.00 88 1015.3
20260903063049 82 136 6.0 9.0 0.00 0.00 0.00 88 1015.3
20260903061555 82 95 1.0 6.0 0.00 0.00 0.00 87 1015.5
20260903060059 82 103 4.0 8.0 0.00 0.00 0.00 88 1015.6
20260903054536 82 115 5.0 7.0 0.00 0.00 0.00 88 1015.6
20260903053044 82 116 2.0 5.0 0.00 0.00 0.00 87 1015.7
20260903051544 82 119 2.0 5.0 0.00 0.00 0.00 87 1015.8
20260903050052 82 119 3.0 6.0 0.00 0.00 0.00 87 1015.8
20260903044503 82 110 4.0 6.0 0.00 0.00 0.00 87 1015.8
20260903043013 83 134 8.0 12.0 0.00 0.00 0.00 87 1015.7
20260903041515 83 135 6.0 12.0 0.00 0.00 0.00 87 1015.7
20260903040019 83 135 5.0 9.0 0.00 0.00 0.00 87 1015.7
20260903034527 83 159 8.0 11.0 0.00 0.00 0.00 87 1015.6
20260903033037 83 135 5.0 6.0 0.00 0.00 0.00 86 1015.7
20260903031547 84 131 3.0 9.0 0.00 0.00 0.00 85 1015.7
20260903030056 84 163 7.0 11.0 0.00 0.00 0.00 86 1015.1
20260903024507 84 143 6.0 10.0 0.00 0.00 0.00 85 1014.9
20260903023009 84 160 8.0 12.0 0.00 0.00 0.00 84 1014.8
20260903021515 84 146 7.0 12.0 0.00 0.00 0.00 83 1014.6
20260903020027 84 143 6.0 12.0 0.00 0.00 0.00 82 1014.3
20260903014528 84 148 7.0 11.0 0.00 0.00 0.00 81 1014.2
20260903013040 85 145 7.0 10.0 0.00 0.00 0.00 79 1014.1
20260903011607 85 136 7.0 12.0 0.00 0.00 0.00 78 1014.1
20260903010103 86 137 6.0 10.0 0.00 0.00 0.00 77 1014.1
20260903010007 86 142 7.0 10.0 0.00 0.00 0.00 76 1014.1
20260903004516 87 140 7.0 13.0 0.00 0.00 0.00 75 1014.2
20260903003018 87 154 9.0 15.0 0.00 0.00 0.00 74 1013.7
20260903001528 88 148 10.0 21.0 0.00 0.00 0.00 72 1013.2